Location: Qazi Observatory
(41.6337°N, 88.1517°W)
Time: 08:30:37
(UTC-05:00)

Amateur Radio Satellites - All Passes

Search period start: 16 August 2017 08:00
Search period end: 17 August 2017 08:00
Location: Qazi Observatory, 41.6337°N, 88.1517°W

Satellite Date Start Highest point End Downlink Frequencies (MHz)
Time Altitude Azimuth
AO-73 16 Aug 08:09:39 08:10:27 10° 90° (E) 08:11:16 145.935
STRAND 1 16 Aug 08:12:32 08:17:14 36° 263° (W) 08:21:57 437.568
KAITUO 1B 16 Aug 08:16:12 08:18:48 18° 293° (WNW) 08:21:24 145.475/437.950
XW-2A 16 Aug 08:16:28 08:19:45 47° 100° (E) 08:23:02 145.665 - 145.685
LilacSat-2 16 Aug 08:18:48 08:20:38 13° 295° (WNW) 08:22:27 437.200
SO-50 16 Aug 08:19:50 08:23:28 23° 44° (NE) 08:27:06 436.795
CUBEBUG 2 16 Aug 08:22:07 08:26:12 53° 100° (E) 08:30:21 437.445
UWE-3 16 Aug 08:26:30 08:30:21 34° 97° (E) 08:34:15 435.000/436.395/437.385
HO-68 16 Aug 08:26:45 08:33:57 86° 105° (ESE) 08:41:08 435.675
SEEDS 16 Aug 08:30:03 08:34:20 83° 100° (E) 08:38:35 437.485
AO-85 16 Aug 08:41:52 08:43:57 14° 319° (NW) 08:46:03 145.980
UNISAT 6 16 Aug 08:46:45 08:49:09 15° 64° (ENE) 08:51:32 437.425
BEESAT 2 16 Aug 08:53:17 08:56:12 19° 316° (NW) 08:59:09 435.950
PRISM 16 Aug 08:56:17 08:58:11 13° 62° (ENE) 09:00:05 437.425
FO-29 16 Aug 08:57:17 09:04:49 58° 71° (ENE) 09:11:48 435.910
Oscar 11 16 Aug 08:58:45 09:02:33 29° 96° (E) 09:06:19 .
CUTE 1.7 + AOD 2 16 Aug 09:07:56 09:11:25 25° 292° (WNW) 09:14:54 437.475
ZACube-1 16 Aug 09:18:18 09:22:32 73° 102° (ESE) 09:26:51 437.345
TIGRISAT 16 Aug 09:21:47 09:25:37 30° 70° (ENE) 09:29:24 435.000
AAUSAT CUBESAT 2 16 Aug 09:32:11 09:36:10 42° 288° (WNW) 09:40:07 437.432
NO-84 16 Aug 09:32:50 09:35:40 31° 34° (NE) 09:38:42 435.350 FM
PCSat 16 Aug 09:37:35 09:42:58 65° 244° (WSW) 09:48:19 145.827
AO-73 16 Aug 09:42:52 09:47:04 66° 285° (WNW) 09:51:21 145.935
DELFI C3 16 Aug 09:52:14 09:55:35 25° 95° (E) 09:58:55 145.870
SO-50 16 Aug 09:59:45 10:04:09 49° 242° (WSW) 10:08:35 436.795
CUBEBUG 2 16 Aug 10:00:19 10:02:24 14° 296° (WNW) 10:04:29 437.445
UWE-3 16 Aug 10:03:30 10:06:36 20° 293° (WNW) 10:09:44 435.000/436.395/437.385
HO-68 16 Aug 10:15:59 10:20:47 20° 305° (NW) 10:25:36 435.675
EO-88 16 Aug 10:18:35 10:21:51 29° 97° (E) 10:25:06 145.990 - 145.960
UNISAT 6 16 Aug 10:21:07 10:25:25 54° 259° (W) 10:29:41 437.425
M-CUBED/EXP-1 PRIME 16 Aug 10:22:25 10:26:16 31° 63° (ENE) 10:30:18 437.505
AIST 2D 16 Aug 10:25:15 10:27:20 15° 67° (ENE) 10:29:26 435.315
PRISM 16 Aug 10:28:51 10:32:56 59° 259° (WSW) 10:37:05 437.425
Oscar 11 16 Aug 10:34:58 10:38:35 26° 292° (WNW) 10:42:10 .
O/OREOS (USA 219) 16 Aug 10:36:00 10:40:21 54° 108° (ESE) 10:44:43 437.305
QB50P2 16 Aug 10:42:08 10:44:29 15° 64° (ENE) 10:46:51 145.880/145.840
FO-29 16 Aug 10:43:26 10:50:01 30° 266° (W) 10:56:17 435.910
EO-79 16 Aug 10:44:53 10:47:10 14° 64° (ENE) 10:49:26 145.935-145.965
Max Valier Satellite 16 Aug 10:46:00 10:49:42 89° 283° (WNW) 10:53:24 145.860
RS-15 16 Aug 10:55:27 11:05:36 33° 103° (ESE) 11:15:48 29.354- 29.394
ZACube-1 16 Aug 10:57:13 10:58:15 11° 298° (WNW) 10:59:16 437.345
TIGRISAT 16 Aug 10:58:46 11:02:18 24° 265° (W) 11:05:48 435.000
NO-84 16 Aug 11:10:12 11:13:01 27° 229° (SW) 11:16:03 435.350 FM
ISS 16 Aug 11:16:50 11:18:58 16° 132° (SE) 11:21:05 437.550
DUCHIFAT 1 16 Aug 11:20:01 11:23:32 26° 68° (ENE) 11:27:02 145.980
DELFI C3 16 Aug 11:27:01 11:30:15 24° 291° (WNW) 11:33:27 145.870
nSIGHT-1 16 Aug 11:31:18 11:33:58 23° 134° (SE) 11:36:38 .
Tancredo 1 16 Aug 11:35:11 11:38:07 86° 329° (NNW) 11:41:02 437.200
BUGSAT 1 16 Aug 11:43:05 11:45:09 14° 64° (ENE) 11:47:13 437.445
EO-88 16 Aug 11:52:47 11:55:18 18° 293° (WNW) 11:57:48 145.990 - 145.960
M-CUBED/EXP-1 PRIME 16 Aug 11:56:50 12:00:36 28° 260° (W) 12:04:34 437.505
AIST 2D 16 Aug 11:57:11 12:00:17 30° 263° (W) 12:03:24 435.315
POLYITAN 1 16 Aug 12:00:49 12:05:02 84° 257° (WSW) 12:09:15 437.675
NANOSAT C BR1 16 Aug 12:01:13 12:05:25 88° 78° (ENE) 12:09:38 145.865
LO-87 16 Aug 12:05:38 12:09:11 85° 104° (ESE) 12:12:42 145.935 - 145.965
SPROUT 16 Aug 12:06:31 12:07:49 11° 90° (E) 12:09:07 437.525
Gurwin Techsat 1B 16 Aug 12:12:51 12:14:26 11° 57° (ENE) 12:16:02 435.225
QB50P2 16 Aug 12:15:45 12:19:51 50° 260° (W) 12:23:58 145.880/145.840
O/OREOS (USA 219) 16 Aug 12:17:14 12:20:07 16° 306° (NW) 12:22:59 437.305
EO-79 16 Aug 12:18:22 12:22:29 52° 260° (W) 12:26:36 145.935-145.965
ESTCUBE 1 16 Aug 12:22:21 12:26:55 73° 102° (ESE) 12:31:26 437.505/2401.250
ISS 16 Aug 12:51:54 12:55:08 59° 328° (NNW) 12:58:22 437.550
VELOX 1 16 Aug 12:52:32 12:56:27 30° 96° (E) 13:00:19 145.980
DUCHIFAT 1 16 Aug 12:55:38 12:59:07 25° 264° (W) 13:02:38 145.980
RS-15 16 Aug 13:04:43 13:16:59 77° 305° (NW) 13:29:25 29.354- 29.394
nSIGHT-1 16 Aug 13:07:04 13:10:12 42° 331° (NNW) 13:13:20 .
Tancredo 1 16 Aug 13:11:38 13:13:42 17° 343° (NNW) 13:15:46 437.200
DX 1 16 Aug 13:12:24 13:14:42 14° 92° (E) 13:16:58 434.975-435.025
BUGSAT 1 16 Aug 13:16:03 13:20:04 52° 259° (W) 13:24:06 437.445
Oscar 19 16 Aug 13:16:37 13:21:40 63° 73° (ENE) 13:26:47 437.125/150
SPROUT 16 Aug 13:39:55 13:44:06 62° 286° (WNW) 13:48:16 437.525
50 SAT 16 Aug 13:45:19 13:48:35 43° 99° (E) 13:51:48 437.505
Gurwin Techsat 1B 16 Aug 13:48:11 13:53:30 80° 74° (ENE) 13:58:50 435.225
BEESAT 3 16 Aug 13:54:01 13:55:34 12° 38° (NE) 13:57:07 437.485
ESTCUBE 1 16 Aug 14:01:14 14:03:05 12° 299° (WNW) 14:04:57 437.505/2401.250
AO-7 16 Aug 14:11:16 14:18:35 35° 58° (ENE) 14:25:54 .
ITAMSAT 1 16 Aug 14:26:18 14:30:13 22° 63° (ENE) 14:34:08 435.822/435.867
VELOX 1 16 Aug 14:29:07 14:32:45 25° 293° (WNW) 14:36:22 145.980
ISS 16 Aug 14:29:49 14:32:07 17° 347° (NNW) 14:34:25 437.550
UKube-1 16 Aug 14:35:56 14:40:17 77° 103° (ESE) 14:44:34 .
nSIGHT-1 16 Aug 14:45:08 14:47:13 16° 350° (N) 14:49:18 .
BEESAT 16 Aug 14:46:16 14:46:49 10° 89° (E) 14:47:22 436.000
DX 1 16 Aug 14:46:55 14:51:11 53° 288° (WNW) 14:55:24 434.975-435.025
Tancredo 1 16 Aug 14:48:37 14:49:50 12° 3° (N) 14:51:03 437.200
Oscar 19 16 Aug 14:58:23 15:01:25 16° 269° (W) 15:04:29 437.125/150
MOZHAYETS 4 16 Aug 15:12:58 15:16:02 17° 92° (E) 15:19:05
ITUPSAT 1 16 Aug 15:14:25 15:18:01 21° 94° (E) 15:21:37 437.325
50 SAT 16 Aug 15:19:59 15:20:51 11° 295° (WNW) 15:21:43 437.505
RS-15 16 Aug 15:21:24 15:31:56 31° 333° (NNW) 15:42:26 29.354- 29.394
AO-85 16 Aug 15:29:19 15:33:34 61° 55° (NE) 15:38:07 145.980
BEESAT 3 16 Aug 15:29:45 15:33:47 87° 58° (ENE) 15:37:42 437.485
BEESAT 2 16 Aug 15:31:48 15:35:29 31° 50° (NE) 15:39:06 435.950
Gurwin Techsat 1B 16 Aug 15:31:48 15:34:02 13° 271° (W) 15:36:17 435.225
AO-7 16 Aug 16:02:46 16:10:57 57° 257° (WSW) 16:19:11 .
ITAMSAT 1 16 Aug 16:04:17 16:09:19 49° 260° (W) 16:14:23 435.822/435.867
DOVE 4 16 Aug 16:04:59 16:07:57 15° 62° (ENE) 16:10:54 437.250
ISS 16 Aug 16:07:33 16:09:34 15° 7° (N) 16:11:34 437.550
UKube-1 16 Aug 16:14:32 16:15:39 11° 300° (WNW) 16:16:46 .
BEESAT 16 Aug 16:20:22 16:25:09 82° 284° (WNW) 16:29:55 436.000
nSIGHT-1 16 Aug 16:22:25 16:24:34 16° 11° (N) 16:26:43 .
Tancredo 1 16 Aug 16:23:25 16:25:51 23° 23° (NNE) 16:28:17 437.200
YUBILEINY 16 Aug 16:24:00 16:32:35 60° 91° (E) 16:41:09 435.215
MOZHAYETS 4 16 Aug 16:48:59 16:53:24 47° 288° (WNW) 16:57:48
ITUPSAT 1 16 Aug 16:51:31 16:55:59 41° 290° (WNW) 17:00:27 437.325
CUBESAT XI-V 16 Aug 16:55:15 16:59:44 41° 98° (E) 17:04:10 437.345
BEESAT 2 16 Aug 17:09:46 17:13:05 24° 247° (WSW) 17:16:21 435.950
AO-85 16 Aug 17:11:07 17:13:35 15° 249° (WSW) 17:16:09 145.980
HO-68 16 Aug 17:12:36 17:15:41 13° 50° (NE) 17:18:46 435.675
KAITUO 1B 16 Aug 17:22:38 17:24:56 16° 66° (ENE) 17:27:14 145.475/437.950
LilacSat-2 16 Aug 17:25:21 17:28:25 24° 69° (ENE) 17:31:30 437.200
XW-2D 16 Aug 17:35:37 17:38:56 30° 71° (ENE) 17:42:15 145.860 - 145.880
KKS-1 16 Aug 17:36:24 17:40:43 49° 100° (E) 17:44:59 437.445
CUTE-I 16 Aug 17:37:34 17:42:25 36° 68° (ENE) 17:47:18 437.470
DOVE 4 16 Aug 17:39:41 17:44:59 77° 258° (WSW) 17:50:16 437.250
RS-15 16 Aug 17:40:29 17:49:54 24° 9° (N) 17:59:03 29.354- 29.394
ISS 16 Aug 17:43:40 17:46:44 36° 27° (NNE) 17:49:47 437.550
XW-2B 16 Aug 17:46:17 17:49:47 39° 73° (ENE) 17:53:18 145.730 - 145.750
nSIGHT-1 16 Aug 17:58:23 18:01:33 48° 31° (NNE) 18:04:41 .
Tancredo 1 16 Aug 17:58:25 18:01:13 44° 221° (SW) 18:04:00 437.200
NUDT-PHONESAT 16 Aug 18:01:37 18:05:05 44° 74° (ENE) 18:08:36 437.300
XW-2C 16 Aug 18:04:50 18:08:32 70° 76° (ENE) 18:12:18 145.795 - 145.815
XW-2F 16 Aug 18:21:10 18:24:53 76° 258° (WSW) 18:28:38 145.980 - 146.000
YUBILEINY 16 Aug 18:22:22 18:29:52 31° 292° (WNW) 18:37:25 435.215
CUTE 1.7 + AOD 2 16 Aug 18:25:03 18:28:17 22° 67° (ENE) 18:31:32 437.475
STARS 16 Aug 18:29:00 18:33:23 76° 103° (ESE) 18:37:43 437.465
CUBESAT XI-V 16 Aug 18:33:16 18:36:49 21° 294° (WNW) 18:40:20 437.345
XW-2A 16 Aug 18:48:43 18:50:51 16° 68° (ENE) 18:53:00 145.665 - 145.685
AAUSAT CUBESAT 2 16 Aug 18:49:31 18:50:55 11° 62° (ENE) 18:52:19 437.432
HO-68 16 Aug 18:55:00 19:02:04 66° 70° (ENE) 19:09:09 435.675
KAITUO 1B 16 Aug 18:55:15 18:58:38 34° 263° (W) 19:02:04 145.475/437.950
LilacSat-2 16 Aug 18:59:37 19:02:37 22° 265° (W) 19:05:38 437.200
O/OREOS (USA 219) 16 Aug 19:07:59 19:10:11 13° 51° (NE) 19:12:22 437.305
XW-2D 16 Aug 19:10:37 19:13:10 17° 267° (W) 19:15:44 145.860 - 145.880
KKS-1 16 Aug 19:14:03 19:16:52 17° 296° (WNW) 19:19:40 437.445
CUTE-I 16 Aug 19:17:51 19:22:29 29° 264° (W) 19:27:08 437.470
CUBEBUG 2 16 Aug 19:20:07 19:24:16 45° 73° (ENE) 19:28:19 437.445
ISS 16 Aug 19:20:16 19:23:09 28° 224° (SW) 19:25:59 437.550
SEEDS 16 Aug 19:21:25 19:25:30 56° 74° (ENE) 19:29:39 437.485
XW-2B 16 Aug 19:22:14 19:24:09 14° 268° (W) 19:26:05 145.730 - 145.750
UWE-3 16 Aug 19:23:46 19:27:24 28° 70° (ENE) 19:31:00 435.000/436.395/437.385
nSIGHT-1 16 Aug 19:35:17 19:37:42 19° 227° (SW) 19:40:06 .
NUDT-PHONESAT 16 Aug 19:37:57 19:39:13 11° 269° (W) 19:40:30 437.300
Oscar 11 16 Aug 19:53:55 19:57:18 23° 67° (ENE) 20:00:42 .
RS-15 16 Aug 19:55:00 20:06:37 47° 42° (NE) 20:17:38 29.354- 29.394
CUTE 1.7 + AOD 2 16 Aug 20:00:06 20:03:55 32° 264° (W) 20:07:45 437.475
STARS 16 Aug 20:07:49 20:09:04 11° 300° (WNW) 20:10:19 437.465
ZACube-1 16 Aug 20:14:03 20:18:09 55° 74° (ENE) 20:22:13 437.345
XW-2A 16 Aug 20:20:34 20:23:23 25° 264° (W) 20:26:13 145.665 - 145.685
AAUSAT CUBESAT 2 16 Aug 20:21:42 20:25:48 66° 259° (W) 20:29:58 437.432
STRAND 1 16 Aug 20:22:10 20:27:17 75° 103° (ESE) 20:32:22 437.568
AO-73 16 Aug 20:38:10 20:42:20 87° 260° (W) 20:46:30 145.935
DELFI C3 16 Aug 20:38:24 20:40:53 16° 66° (ENE) 20:43:23 145.870
HO-68 16 Aug 20:44:46 20:50:17 24° 267° (W) 20:55:50 435.675
O/OREOS (USA 219) 16 Aug 20:45:36 20:50:08 75° 250° (WSW) 20:54:41 437.305
EO-88 16 Aug 20:57:35 20:59:32 14° 66° (ENE) 21:01:31 145.990 - 145.960
CUBEBUG 2 16 Aug 20:58:28 21:01:05 16° 268° (W) 21:03:40 437.445
SEEDS 16 Aug 20:59:50 21:01:32 12° 270° (W) 21:03:16 437.485
UWE-3 16 Aug 21:00:23 21:03:50 24° 265° (W) 21:07:15 435.000/436.395/437.385
Max Valier Satellite 16 Aug 21:24:50 21:28:13 38° 72° (ENE) 21:31:38 145.860
Oscar 11 16 Aug 21:29:26 21:33:16 31° 264° (W) 21:37:07 .
FO-29 16 Aug 21:52:52 21:58:19 41° 97° (E) 22:03:17 435.910
ZACube-1 16 Aug 21:53:11 21:54:46 12° 270° (W) 21:56:20 437.345
STRAND 1 16 Aug 22:03:07 22:05:49 15° 300° (WNW) 22:08:31 437.568
RS-15 16 Aug 22:07:53 22:19:34 61° 247° (WSW) 22:30:38 29.354- 29.394
PRISM 16 Aug 22:10:45 22:13:36 18° 93° (E) 22:16:26 437.425
DELFI C3 16 Aug 22:11:33 22:15:19 40° 262° (W) 22:19:07 145.870
UNISAT 6 16 Aug 22:12:31 22:16:14 28° 96° (E) 22:19:59 437.425
EO-88 16 Aug 22:29:30 22:32:52 37° 262° (W) 22:36:18 145.990 - 145.960
PCSat 16 Aug 22:38:35 22:41:39 15° 104° (ESE) 22:44:44 145.827
LO-87 16 Aug 22:41:40 22:44:55 32° 72° (ENE) 22:48:09 145.935 - 145.965
TIGRISAT 16 Aug 22:48:38 22:52:54 66° 101° (E) 22:57:12 435.000
Max Valier Satellite 16 Aug 23:00:25 23:02:13 13° 268° (W) 23:04:02 145.860
ESTCUBE 1 16 Aug 23:21:38 23:26:06 67° 74° (ENE) 23:30:37 437.505/2401.250
AIST 2D 16 Aug 23:22:12 23:24:39 18° 94° (E) 23:27:06 435.315
M-CUBED/EXP-1 PRIME 16 Aug 23:35:26 23:38:47 21° 97° (E) 23:41:58 437.505
FO-29 16 Aug 23:38:26 23:43:08 26° 298° (WNW) 23:47:32 435.910
PRISM 16 Aug 23:45:10 23:49:00 37° 289° (WNW) 23:52:47 437.425
POLYITAN 1 16 Aug 23:46:34 23:49:03 15° 92° (E) 23:51:31 437.675
NANOSAT C BR1 16 Aug 23:46:45 23:48:52 13° 91° (E) 23:50:58 145.865
UNISAT 6 16 Aug 23:49:20 23:52:51 25° 292° (WNW) 23:56:23 437.425
VELOX 1 16 Aug 23:49:48 23:53:37 28° 68° (ENE) 23:57:26 145.980
QB50P2 17 Aug 00:00:37 00:04:03 24° 95° (E) 00:07:29 145.880/145.840
EO-79 17 Aug 00:03:05 00:06:28 23° 95° (E) 00:09:49 145.935-145.965
DX 1 17 Aug 00:08:30 00:10:43 14° 62° (ENE) 00:12:58 434.975-435.025
SO-50 17 Aug 00:13:48 00:18:09 50° 118° (ESE) 00:22:31 436.795
LO-87 17 Aug 00:16:17 00:18:26 15° 267° (W) 00:20:34 145.935 - 145.965
50 SAT 17 Aug 00:17:15 00:19:30 17° 67° (ENE) 00:21:46 437.505
PCSat 17 Aug 00:18:59 00:24:23 73° 301° (WNW) 00:29:50 145.827
RS-15 17 Aug 00:26:06 00:29:09 11° 268° (W) 00:32:11 29.354- 29.394
TIGRISAT 17 Aug 00:27:25 00:29:03 12° 298° (WNW) 00:30:41 435.000
SPROUT 17 Aug 00:32:47 00:37:03 82° 256° (WSW) 00:41:20 437.525
DUCHIFAT 1 17 Aug 00:38:24 00:42:25 45° 99° (E) 00:46:26 145.980
AIST 2D 17 Aug 00:54:50 00:57:51 27° 289° (WNW) 01:00:53 435.315
BUGSAT 1 17 Aug 00:58:04 01:01:02 20° 94° (E) 01:03:59 437.445
ESTCUBE 1 17 Aug 01:01:46 01:03:21 12° 271° (W) 01:04:56 437.505/2401.250
M-CUBED/EXP-1 PRIME 17 Aug 01:09:08 01:13:19 38° 295° (WNW) 01:17:15 437.505
NANOSAT C BR1 17 Aug 01:20:48 01:24:51 50° 287° (WNW) 01:28:54 145.865
POLYITAN 1 17 Aug 01:21:03 01:25:03 44° 288° (WNW) 01:29:03 437.675
VELOX 1 17 Aug 01:26:11 01:29:59 27° 264° (W) 01:33:49 145.980
Oscar 19 17 Aug 01:28:40 01:32:37 22° 93° (E) 01:36:34 437.125/150
UKube-1 17 Aug 01:30:06 01:34:23 65° 74° (ENE) 01:38:41 .
QB50P2 17 Aug 01:36:12 01:39:49 28° 291° (WNW) 01:43:24 145.880/145.840
EO-79 17 Aug 01:38:34 01:42:13 29° 291° (WNW) 01:45:50 145.935-145.965
DX 1 17 Aug 01:42:04 01:46:23 60° 258° (WSW) 01:50:46 434.975-435.025
50 SAT 17 Aug 01:49:01 01:51:58 27° 263° (W) 01:54:57 437.505
BEESAT 17 Aug 01:51:49 01:54:14 14° 61° (ENE) 01:56:40 436.000
SO-50 17 Aug 01:55:20 01:58:52 22° 316° (NW) 02:02:24 436.795
Gurwin Techsat 1B 17 Aug 02:04:35 02:09:15 31° 96° (E) 02:13:54 435.225
PCSat 17 Aug 02:05:52 02:08:45 14° 321° (NW) 02:11:40 145.827
DUCHIFAT 1 17 Aug 02:15:12 02:17:43 16° 295° (WNW) 02:20:14 145.980
MOZHAYETS 4 17 Aug 02:15:19 02:18:20 18° 64° (ENE) 02:21:22
ITUPSAT 1 17 Aug 02:21:15 02:25:10 26° 66° (ENE) 02:29:05 437.325
NO-84 17 Aug 02:27:18 02:29:42 24° 131° (SE) 02:32:06 435.350 FM
BUGSAT 1 17 Aug 02:32:53 02:36:26 31° 290° (WNW) 02:39:59 437.445
YUBILEINY 17 Aug 02:34:21 02:41:45 30° 68° (ENE) 02:49:04 435.215
Oscar 19 17 Aug 03:07:10 03:12:08 47° 290° (WNW) 03:17:06 437.125/150
UKube-1 17 Aug 03:09:31 03:10:49 11° 270° (W) 03:12:07 .
BEESAT 17 Aug 03:26:42 03:31:25 69° 257° (WSW) 03:36:12 436.000
Gurwin Techsat 1B 17 Aug 03:44:25 03:49:11 34° 293° (WNW) 03:53:55 435.225
MOZHAYETS 4 17 Aug 03:50:44 03:55:07 47° 261° (W) 03:59:32
CUBESAT XI-V 17 Aug 03:58:29 04:02:49 41° 71° (ENE) 04:07:13 437.345
ITUPSAT 1 17 Aug 03:58:31 04:02:50 34° 263° (W) 04:07:10 437.325
AO-7 17 Aug 04:04:00 04:12:03 50° 101° (ESE) 04:20:00 .
NO-84 17 Aug 04:04:36 04:07:02 25° 328° (NNW) 04:09:28 435.350 FM
ITAMSAT 1 17 Aug 04:16:40 04:21:47 57° 101° (E) 04:26:51 435.822/435.867
YUBILEINY 17 Aug 04:30:33 04:39:06 62° 268° (W) 04:47:34 435.215
KKS-1 17 Aug 04:34:16 04:38:33 46° 72° (ENE) 04:42:50 437.445
BEESAT 3 17 Aug 05:21:17 05:23:14 13° 109° (ESE) 05:25:10 437.485
STARS 17 Aug 05:25:17 05:29:39 69° 75° (ENE) 05:34:03 437.465
CUBESAT XI-V 17 Aug 05:36:56 05:40:21 20° 267° (W) 05:43:47 437.345
DOVE 4 17 Aug 05:39:26 05:43:27 28° 94° (E) 05:47:15 437.250
AO-85 17 Aug 05:45:53 05:48:17 16° 111° (ESE) 05:50:40 145.980
XW-2F 17 Aug 05:55:13 05:56:12 11° 90° (E) 05:57:12 145.980 - 146.000
CUTE-I 17 Aug 05:55:53 05:58:25 13° 89° (E) 06:00:56 437.470
AO-7 17 Aug 05:57:04 06:04:35 40° 300° (WNW) 06:12:05 .
ITAMSAT 1 17 Aug 05:57:13 06:00:47 19° 298° (WNW) 06:04:20 435.822/435.867
STRAND 1 17 Aug 06:02:04 06:04:43 14° 60° (ENE) 06:07:24 437.568
KKS-1 17 Aug 06:12:27 06:15:19 17° 267° (W) 06:18:13 437.445
KAITUO 1B 17 Aug 06:26:15 06:29:11 21° 94° (E) 06:32:05 145.475/437.950
HO-68 17 Aug 06:27:39 06:28:04 10° 86° (E) 06:28:29 435.675
LilacSat-2 17 Aug 06:31:40 06:35:14 34° 97° (E) 06:38:47 437.200
XW-2D 17 Aug 06:41:21 06:45:02 44° 99° (E) 06:48:42 145.860 - 145.880
XW-2B 17 Aug 06:52:11 06:55:58 58° 100° (E) 06:59:46 145.730 - 145.750
BEESAT 3 17 Aug 06:56:22 07:00:18 56° 306° (NW) 07:04:18 437.485
BEESAT 2 17 Aug 07:00:02 07:03:54 51° 118° (ESE) 07:07:49 435.950
NUDT-PHONESAT 17 Aug 07:05:03 07:08:46 62° 101° (E) 07:12:28 437.300
STARS 17 Aug 07:05:15 07:06:26 11° 270° (W) 07:07:37 437.465
XW-2C 17 Aug 07:10:59 07:14:50 79° 283° (WNW) 07:18:40 145.795 - 145.815
DOVE 4 17 Aug 07:17:06 07:21:04 28° 293° (WNW) 07:24:50 437.250
PCSat 17 Aug 07:24:26 07:27:58 17° 41° (NE) 07:31:29 145.827
AO-85 17 Aug 07:24:32 07:28:18 43° 308° (NW) 07:32:04 145.980
XW-2F 17 Aug 07:26:54 07:30:38 52° 285° (WNW) 07:34:21 145.980 - 146.000
CUTE-I 17 Aug 07:33:41 07:39:01 76° 286° (WNW) 07:44:18 437.470
STRAND 1 17 Aug 07:38:08 07:43:15 77° 257° (WSW) 07:48:23 437.568
XW-2A 17 Aug 07:42:11 07:44:24 16° 94° (E) 07:46:36 145.665 - 145.685
CUTE 1.7 + AOD 2 17 Aug 07:44:11 07:48:14 40° 98° (E) 07:52:16 437.475
